| time (UTC) | temp F | wind direction | speed knots | gust knots | rain 1hr in | rain 24hr in | rain mn in | humidity % | barometer mb |
| 20260904174557 | 90 | 71 | 0.9 | 7.0 | 0.00 | 0.11 | 0.00 | 73 | 1012.9 |
| 20260904173047 | 89 | 176 | 0.0 | 2.6 | 0.00 | 0.11 | 0.00 | 74 | 1013.0 |
| 20260904171546 | 88 | 257 | 0.0 | 1.7 | 0.00 | 0.11 | 0.00 | 78 | 1013.0 |
| 20260904170046 | 87 | 111 | 0.0 | 3.5 | 0.00 | 0.11 | 0.00 | 79 | 1013.1 |
| 20260904164535 | 85 | 171 | 0.0 | 0.0 | 0.00 | 0.11 | 0.00 | 81 | 1013.3 |
| 20260904163031 | 84 | 163 | 0.0 | 0.9 | 0.00 | 0.11 | 0.00 | 81 | 1013.3 |
| 20260904161530 | 84 | 168 | 0.0 | 1.7 | 0.00 | 0.11 | 0.00 | 81 | 1013.4 |
| 20260904160026 | 84 | 75 | 0.0 | 4.3 | 0.00 | 0.11 | 0.00 | 82 | 1013.2 |
| 20260904154528 | 83 | 118 | 0.0 | 3.5 | 0.00 | 0.11 | 0.00 | 83 | 1013.2 |
| 20260904153025 | 84 | 105 | 0.0 | 2.6 | 0.00 | 0.11 | 0.00 | 86 | 1013.2 |
| 20260904151521 | 84 | 131 | 0.0 | 3.5 | 0.00 | 0.11 | 0.00 | 86 | 1012.8 |
| 20260904150028 | 83 | 88 | 0.0 | 2.6 | 0.00 | 0.11 | 0.00 | 87 | 1012.7 |
| 20260904144516 | 83 | 129 | 1.7 | 8.7 | 0.00 | 0.11 | 0.00 | 87 | 1012.7 |
| 20260904143012 | 84 | 128 | 0.9 | 3.5 | 0.00 | 0.11 | 0.00 | 88 | 1012.6 |
| 20260904141516 | 83 | 79 | 0.0 | 0.9 | 0.00 | 0.11 | 0.00 | 88 | 1012.4 |
| 20260904140021 | 82 | 79 | 0.0 | 0.0 | 0.00 | 0.11 | 0.00 | 89 | 1012.4 |
| 20260904134507 | 81 | 79 | 0.0 | 2.6 | 0.00 | 0.11 | 0.00 | 92 | 1012.2 |
| 20260904133007 | 81 | 73 | 0.0 | 3.5 | 0.00 | 0.11 | 0.00 | 93 | 1012.2 |
| 20260904131502 | 81 | 55 | 0.9 | 2.6 | 0.00 | 0.11 | 0.00 | 93 | 1012.1 |
| 20260904130002 | 81 | 76 | 0.0 | 0.0 | 0.00 | 0.11 | 0.00 | 93 | 1012.0 |
| 20260904124609 | 80 | 76 | 0.0 | 0.0 | 0.00 | 0.11 | 0.00 | 93 | 1011.9 |
| 20260904123056 | 80 | 76 | 0.0 | 0.0 | 0.00 | 0.11 | 0.00 | 93 | 1011.6 |
| 20260904121554 | 81 | 76 | 0.0 | 0.0 | 0.00 | 0.11 | 0.00 | 93 | 1011.3 |
| 20260904120104 | 80 | 76 | 0.0 | 0.0 | 0.00 | 0.11 | 0.00 | 93 | 1011.3 |
| 20260904114552 | 80 | 76 | 0.0 | 0.0 | 0.00 | 0.11 | 0.00 | 92 | 1011.3 |
| 20260904113053 | 80 | 76 | 0.0 | 0.0 | 0.00 | 0.11 | 0.00 | 92 | 1011.2 |
| 20260904111548 | 80 | 76 | 0.0 | 0.0 | 0.00 | 0.11 | 0.00 | 92 | 1011.3 |
| 20260904110047 | 80 | 76 | 0.0 | 0.0 | 0.00 | 0.11 | 0.00 | 92 | 1011.2 |
| 20260904104547 | 80 | 114 | 0.0 | 0.0 | 0.00 | 0.11 | 0.00 | 92 | 1011.3 |
| 20260904103044 | 81 | 114 | 0.0 | 0.0 | 0.00 | 0.11 | 0.00 | 91 | 1011.0 |
| 20260904101548 | 81 | 114 | 0.0 | 0.0 | 0.00 | 0.11 | 0.00 | 91 | 1010.9 |
| 20260904100045 | 81 | 114 | 0.0 | 0.0 | 0.00 | 0.11 | 0.00 | 91 | 1010.8 |
| 20260904094547 | 81 | 114 | 0.0 | 1.7 | 0.00 | 0.11 | 0.00 | 91 | 1010.8 |
| 20260904093046 | 81 | 200 | 0.0 | 0.0 | 0.00 | 0.11 | 0.00 | 91 | 1010.6 |
| 20260904091541 | 81 | 200 | 0.0 | 0.0 | 0.00 | 0.11 | 0.00 | 91 | 1010.6 |
| 20260904090042 | 81 | 200 | 0.0 | 0.0 | 0.00 | 0.11 | 0.00 | 90 | 1010.5 |
| 20260904084540 | 81 | 200 | 0.0 | 0.0 | 0.00 | 0.11 | 0.00 | 90 | 1010.5 |
| 20260904083038 | 81 | 200 | 0.0 | 0.0 | 0.00 | 0.11 | 0.00 | 90 | 1010.6 |
| 20260904081537 | 81 | 200 | 0.0 | 0.9 | 0.00 | 0.11 | 0.00 | 89 | 1010.6 |
| 20260904080036 | 81 | 200 | 0.0 | 0.9 | 0.00 | 0.11 | 0.00 | 89 | 1010.7 |
| 20260904074534 | 82 | 200 | 0.0 | 0.9 | 0.00 | 0.11 | 0.00 | 89 | 1010.7 |
| 20260904073035 | 82 | 200 | 0.0 | 0.0 | 0.00 | 0.11 | 0.00 | 88 | 1010.7 |
| 20260904071532 | 82 | 200 | 0.0 | 0.0 | 0.00 | 0.11 | 0.00 | 88 | 1010.7 |
| 20260904070033 | 82 | 230 | 0.0 | 0.9 | 0.00 | 0.11 | 0.00 | 88 | 1010.8 |
| 20260904064538 | 82 | 236 | 0.0 | 0.9 | 0.00 | 0.11 | 0.00 | 88 | 1010.9 |
| 20260904063031 | 82 | 214 | 0.0 | 1.7 | 0.00 | 0.11 | 0.00 | 87 | 1010.8 |
| 20260904061536 | 82 | 223 | 0.0 | 0.9 | 0.00 | 0.11 | 0.00 | 87 | 1010.9 |
| 20260904060046 | 83 | 231 | 0.0 | 0.0 | 0.00 | 0.11 | 0.00 | 87 | 1011.0 |
| 20260904054539 | 83 | 221 | 0.0 | 0.0 | 0.00 | 0.11 | 0.00 | 88 | 1011.0 |
| 20260904053033 | 82 | 175 | 0.0 | 0.0 | 0.00 | 0.11 | 0.00 | 88 | 1010.9 |
| 20260904051525 | 82 | 126 | 0.0 | 0.0 | 0.00 | 0.11 | 0.00 | 89 | 1011.0 |
| 20260904050037 | 83 | 126 | 0.0 | 0.0 | 0.00 | 0.11 | 0.00 | 89 | 1011.1 |
| 20260904044527 | 83 | 126 | 0.0 | 0.0 | 0.00 | 0.11 | 0.11 | 89 | 1011.1 |
| 20260904043021 | 83 | 126 | 0.0 | 0.0 | 0.00 | 0.11 | 0.11 | 88 | 1011.1 |
| 20260904041524 | 83 | 115 | 0.0 | 0.0 | 0.00 | 0.11 | 0.11 | 88 | 1011.1 |
| 20260904040036 | 83 | 115 | 0.0 | 0.0 | 0.00 | 0.11 | 0.11 | 88 | 1011.2 |
| 20260904034521 | 83 | 104 | 0.0 | 0.0 | 0.00 | 0.11 | 0.11 | 87 | 1011.1 |
| 20260904033021 | 83 | 104 | 0.0 | 0.0 | 0.00 | 0.11 | 0.11 | 87 | 1011.2 |
| 20260904031522 | 83 | 104 | 0.0 | 0.0 | 0.00 | 0.11 | 0.11 | 87 | 1011.3 |
| 20260904030019 | 83 | 104 | 0.0 | 0.0 | 0.00 | 0.11 | 0.11 | 87 | 1011.2 |
| 20260904024518 | 83 | 84 | 0.0 | 0.0 | 0.00 | 0.11 | 0.11 | 87 | 1011.3 |
| 20260904023020 | 83 | 84 | 0.0 | 0.0 | 0.00 | 0.11 | 0.11 | 87 | 1011.1 |
| 20260904021618 | 83 | 84 | 0.0 | 0.0 | 0.00 | 0.11 | 0.11 | 87 | 1010.8 |
| 20260904020016 | 84 | 84 | 0.0 | 0.0 | 0.00 | 0.11 | 0.11 | 87 | 1010.8 |
| 20260904014516 | 84 | 84 | 0.0 | 0.0 | 0.00 | 0.11 | 0.11 | 86 | 1010.5 |
| 20260904013015 | 84 | 84 | 0.0 | 0.0 | 0.00 | 0.11 | 0.11 | 85 | 1010.4 |
| 20260904011514 | 84 | 84 | 0.0 | 0.0 | 0.00 | 0.11 | 0.11 | 85 | 1010.4 |
| 20260904010014 | 84 | 84 | 0.0 | 0.0 | 0.00 | 0.11 | 0.11 | 84 | 1010.3 |
| 20260904004519 | 85 | 84 | 0.0 | 0.0 | 0.00 | 0.11 | 0.11 | 84 | 1010.2 |
| 20260904003022 | 85 | 142 | 0.0 | 0.0 | 0.00 | 0.11 | 0.11 | 83 | 1010.3 |
| 20260904001512 | 85 | 142 | 0.0 | 0.0 | 0.00 | 0.11 | 0.11 | 83 | 1010.4 |
| 20260904000013 | 85 | 162 | 0.0 | 1.7 | 0.00 | 0.11 | 0.11 | 83 | 1010.4 |
| 20260903234512 | 85 | 158 | 0.0 | 1.7 | 0.00 | 0.11 | 0.11 | 84 | 1010.5 |
| 20260903233018 | 85 | 121 | 0.9 | 2.6 | 0.00 | 0.11 | 0.11 | 83 | 1010.3 |
| 20260903231513 | 85 | 145 | 0.0 | 1.7 | 0.00 | 0.11 | 0.11 | 83 | 1010.3 |
| 20260903230011 | 85 | 130 | 0.0 | 1.7 | 0.00 | 0.11 | 0.11 | 83 | 1010.3 |
| 20260903224516 | 86 | 137 | 0.0 | 2.6 | 0.00 | 0.11 | 0.11 | 83 | 1010.5 |
| 20260903223011 | 86 | 138 | 0.9 | 1.7 | 0.00 | 0.11 | 0.11 | 83 | 1010.6 |
| 20260903221507 | 86 | 73 | 0.0 | 2.6 | 0.00 | 0.11 | 0.11 | 84 | 1010.6 |
| 20260903220008 | 85 | 101 | 0.9 | 6.1 | 0.00 | 0.11 | 0.11 | 85 | 1010.7 |
| 20260903214506 | 85 | 81 | 1.7 | 6.1 | 0.00 | 0.11 | 0.11 | 85 | 1010.9 |
| 20260903213003 | 85 | 97 | 0.0 | 3.5 | 0.00 | 0.11 | 0.11 | 86 | 1011.5 |
| 20260903211502 | 84 | 84 | 0.0 | 7.8 | 0.00 | 0.11 | 0.11 | 87 | 1011.4 |
| 20260903210002 | 84 | 108 | 1.7 | 5.2 | 0.01 | 0.11 | 0.11 | 89 | 1011.4 |
| 20260903204502 | 83 | 80 | 1.7 | 6.1 | 0.03 | 0.11 | 0.11 | 91 | 1011.4 |
| 20260903203000 | 82 | 70 | 0.0 | 3.5 | 0.11 | 0.11 | 0.11 | 92 | 1011.3 |
| 20260903201600 | 81 | 81 | 0.0 | 2.6 | 0.11 | 0.11 | 0.11 | 92 | 1011.3 |
| 20260903200059 | 80 | 182 | 0.0 | 2.6 | 0.10 | 0.10 | 0.10 | 89 | 1011.1 |
| 20260903194558 | 82 | 218 | 0.0 | 7.0 | 0.09 | 0.09 | 0.09 | 86 | 1012.0 |
| 20260903193057 | 88 | 156 | 1.7 | 7.8 | 0.00 | 0.00 | 0.00 | 77 | 1011.8 |
| 20260903191557 | 90 | 102 | 5.2 | 13.0 | 0.00 | 0.00 | 0.00 | 76 | 1011.3 |
| 20260903190057 | 90 | 90 | 1.7 | 7.8 | 0.00 | 0.00 | 0.00 | 74 | 1011.5 |
| 20260903184604 | 89 | 101 | 2.6 | 8.7 | 0.00 | 0.00 | 0.00 | 77 | 1011.6 |
| 20260903183052 | 89 | 93 | 3.5 | 12.2 | 0.00 | 0.00 | 0.00 | 79 | 1011.8 |
| 20260903181554 | 89 | 108 | 5.2 | 11.3 | 0.00 | 0.00 | 0.00 | 78 | 1011.8 |
| 20260903180058 | 91 | 107 | 6.1 | 9.6 | 0.00 | 0.00 | 0.00 | 76 | 1012.2 |